This demonstration page uses our WeatherBlox Daily Observations layout. Learn more.

Left ArrowRight Arrow

41.55636, -103.73856

Hourly Observations for January 4, 2021

Temp ( °F °C ) Dew Point ( °F °C ) Humidity (%) Winds ( mph kmh ) Pressure ( in mb ) Visibility ( mi km ) Precip ( " mm )
12:58 am 00:58 Partly Cloudy 36 2.4 23 -5.1 58 58 NW 21 33 30.02 1017 10 16.0934 0 0
1:58 am 01:58 Clear 34 0.9 22 -5.5 63 63 NW 14 22 30.08 1019 10 16.0934 0 0
2:58 am 02:58 Clear 33 0.4 22 -5.7 64 64 WNW 10 17 30.12 1020 10 16.0934 0 0
3:58 am 03:58 Clear 32 0.1 21 -6 64 64 W 3 6 30.13 1020 10 16.0934 0 0
4:58 am 04:58 Clear 29 -1.7 19 -7 67 67 W 6 9 30.16 1021 10 16.0934 0 0
5:58 am 05:58 Clear 28 -2.4 19 -7.1 70 70 SW 3 6 30.17 1022 10 16.0934 0 0
6:58 am 06:58 Clear 28 -2.2 19 -7 70 70 W 8 13 30.19 1022 10 16.0934 0 0
7:58 am 07:58 Sunny 26 -3.2 20 -6.9 76 76 W 9 15 30.22 1023 10 16.0934 0 0
8:58 am 08:58 Sunny 34 0.9 21 -6.1 60 60 WSW 8 13 30.2 1023 10 16.0934 0 0
9:58 am 09:58 Sunny 41 4.9 20 -6.6 44 44 W 13 20 30.19 1022 10 16.0934 0 0
10:58 am 10:58 Sunny 45 7.3 17 -8.3 32 32 NW 16 26 30.16 1021 10 16.0934 0 0
11:58 am 11:58 Sunny 48 8.8 15 -9.4 27 27 NW 22 35 30.09 1019 10 16.0934 0 0
12:58 pm 12:58 Sunny 50 9.8 15 -9.4 25 25 NW 15 24 30.09 1019 10 16.0934 0 0
1:58 pm 13:58 Sunny 50 10.1 13 -10.5 22 22 WNW 18 30 30.1 1019 10 16.0934 0 0
2:58 pm 14:58 Sunny 49 9.6 14 -10 24 24 NW 15 24 30.09 1019 10 16.0934 0 0
3:58 pm 15:58 Sunny 46 7.7 15 -9.5 29 29 NW 9 15 30.1 1019 10 16.0934 0 0
4:58 pm 16:58 Clear 41 4.9 14 -10 33 33 SSW 7 11 30.11 1020 10 16.0934 0 0
5:58 pm 17:58 Clear 36 2.1 17 -8.2 47 47 S 10 17 30.11 1020 10 16.0934 0 0
6:58 pm 18:58 Clear 36 2.1 16 -8.8 45 45 SSW 8 13 30.09 1019 10 16.0934 0 0
7:58 pm 19:58 Clear 37 2.5 15 -9.2 42 42 SSW 15 24 30.06 1018 10 16.0934 0 0
8:58 pm 20:58 Clear 36 2.4 17 -8.5 45 45 S 8 13 30.02 1017 10 16.0934 0 0
9:58 pm 21:58 Clear 35 1.8 19 -7.1 52 52 SSW 20 31 29.98 1015 10 16.0934 0 0
10:58 pm 22:58 Clear 34 1.2 18 -7.7 52 52 SW 13 20 29.94 1014 10 16.0934 0 0
11:58 pm 23:58 Partly Cloudy 34 1.1 19 -7.3 54 54 SSW 9 15 29.91 1013 10 16.0934 0 0

Powered by AerisWeather